Aérodrome :
LOGIN :

S'inscrire | Disclaimer

   EN    FR    IT 

 










Légende :    VFR   VFR Marginal   IFR   IFR Intensif   IFR Très Intensif
Visi : 
Plafond : 
>= 8 km
>= 3000ft
5 à 8 km
1000 à 3000 ft
1500m à 5 km
500 à 1000 ft
800 à 1500m
200 à 500 ft
< 800m
< 200 ft
Symboles :   Orages  Brouillard  Fortes neiges  Fortes précipitations  Vent > 20 kt
SIGMETs :   Divers  Orages  Givrage  Turbulence  Onde Orograph.  Cendres Volcan.







- Altitude de l'aérodrome : 49 ft
- Code IATA : SEN
- Voir les cartes d'approche


EGMC - Southend

DERNIER METAR :
  • 212220Z 24007KT CAVOK 21/13 Q1014

METARs EXPIRÉS :
  • 212150Z 24009KT CAVOK 22/14 Q1014
  • 212120Z 22007KT CAVOK 21/13 Q1014
  • 212050Z 22011KT CAVOK 21/13 Q1014
  • 212020Z 21011KT CAVOK 22/13 Q1014
  • 211950Z 21009KT CAVOK 23/14 Q1013

TAF TAF EGMC
Valide du 21 à 21h jusqu'au 22 à 06h UTC


212006Z 2121/2206 25010KT CAVOK
BECMG 2200/2203 33006KT
Pas de NOTAMs connus pour ce terrain.



MET'MAP, la Météo Aéronautique d'un coup d'oeil ! - Copyright ORBIFLY Décembre 2007 - Disclaimer

ORBIFLY MET'MAP TEAM :

Programmation & Développement : Alexandra Zaïnal
Conception & Développement : Baudouin d'Aumeries
Co-Programmation & Développement : Marc-Olivier Méhu
Soutien technique & logistique : Manuel Goepfert

Contact : metmap@orbifly.com




SOURCES & CREDITS :

   NOAA